Flag for Taiwan Weather past 2 weeks in Taipei, Taiwan

Now
79 °F

Partly sunny.


Feels Like: 81 °F
Forecast: 73 / 86 °F
Wind: 9 mph from East

Location: Sungshan / Taipei


UV Index: 7 (High)

Visibility: N/A


Pressure: 29.86 "Hg

Humidity: 65%

Dew point: 66 °F

Location of TaipeiLocation

Historic Weather in Taipei

°F

Taipei temperature yesterday

Maximum temperature yesterday: 84 °F (at 12:30 PM)
Minimum temperature yesterday: 72 °F (at 5:00 AM)
Average temperature yesterday: 77 °F

Past Weeks' High & Low Weather Summary

 TemperatureHumidityPressure
High88 °F (Apr 11, 2:00 PM)94% (Apr 8, 3:00 AM)30.15 "Hg (Apr 8, 3:00 AM)
Low59 °F (Apr 5, 4:00 AM)28% (Apr 5, 2:00 PM)29.80 "Hg (Apr 12, 2:00 PM)
Average72 °F67%29.98 "Hg
* Reported Apr 2 5:00 PM — Apr 17 5:00 PM, Taipei, Weather by CustomWeather, © 2014

Note: Actual official high and low records may vary slightly from our data, if they occured in-between our weather recording intervals... More about our weather records

Advertising

Historic Weather Conditions — Data for Previous 24 hours

 ConditionsComfort  
Time TempWeatherWind HumidityBarometerVisibility
5:00 PM
Apr 17
79 °FPartly sunny.6 mph70%29.83 "HgN/A
4:30 PM81 °FPartly sunny.5 mph66%29.83 "HgN/A
4:00 PM81 °FPartly sunny.7 mph66%29.83 "HgN/A
3:30 PM81 °FPartly sunny.6 mph62%29.83 "HgN/A
3:00 PM82 °FPartly sunny.9 mph58%29.83 "HgN/A
2:30 PM82 °FBroken clouds.10 mph55%29.83 "HgN/A
2:00 PM84 °FScattered clouds.13 mph55%29.83 "HgN/A
1:30 PM86 °FScattered clouds.14 mph52%29.83 "HgN/A
1:00 PM86 °FScattered clouds.9 mph49%29.86 "HgN/A
12:30 PM88 °FScattered clouds.7 mph43%29.86 "HgN/A
12:00 PM86 °FScattered clouds.6 mph40%29.86 "HgN/A
11:30 AM86 °FPassing clouds.5 mph38%29.86 "HgN/A
11:00 AM86 °FPassing clouds.7 mph43%29.89 "HgN/A
10:30 AM84 °FPassing clouds.5 mph45%29.89 "HgN/A
10:00 AM82 °FPassing clouds.6 mph48%29.89 "HgN/A
9:30 AM82 °FPassing clouds.5 mph51%29.89 "HgN/A
9:00 AM81 °FSunny.2 mph54%29.89 "Hg10 mi
8:30 AM79 °FClear.2 mph58%29.89 "Hg5 mi
8:00 AM77 °FClear.1 mph65%29.89 "Hg5 mi
7:30 AM75 °FSunny.1 mph69%29.89 "Hg10 mi
7:00 AM73 °FSunny.1 mph74%29.89 "Hg10 mi
6:30 AM72 °FPassing clouds.No wind78%29.89 "HgN/A
6:00 AM72 °FScattered clouds.No wind73%29.89 "HgN/A
5:00 AM72 °FPassing clouds.1 mph73%29.89 "HgN/A
4:00 AM72 °FPassing clouds.N/A73%29.86 "HgN/A
3:00 AM70 °FPassing clouds.No wind78%29.86 "HgN/A
2:00 AM72 °FPassing clouds.No wind73%29.86 "HgN/A
1:00 AM72 °FPassing clouds.2 mph69%29.89 "HgN/A
12:00 AM73 °FPassing clouds.3 mph69%29.89 "HgN/A
11:30 PM
Apr 16
73 °FPassing clouds.3 mph69%29.89 "HgN/A
11:00 PM75 °FPassing clouds.1 mph65%29.92 "HgN/A
10:30 PM73 °FPassing clouds.3 mph69%29.92 "HgN/A
10:00 PM75 °FPassing clouds.3 mph65%29.92 "HgN/A
9:30 PM73 °FPassing clouds.6 mph69%29.89 "HgN/A
9:00 PM75 °FPassing clouds.2 mph65%29.89 "HgN/A
8:30 PM75 °FPassing clouds.3 mph61%29.89 "HgN/A
8:00 PM75 °FPassing clouds.5 mph65%29.89 "HgN/A
7:30 PM77 °FPassing clouds.3 mph61%29.86 "HgN/A
7:00 PM75 °FPartly cloudy.7 mph69%29.86 "HgN/A
6:30 PM77 °FPartly cloudy.8 mph61%29.86 "HgN/A
6:00 PM79 °FBroken clouds.8 mph58%29.86 "HgN/A
Weather by CustomWeather, © 2014

See weather overview